Location: Bittkow
(50.3000°N, 19.0000°E)
Time: 13:08:37
(UTC+00:00)

Cosmos 1697 Rocket - Pass Details

Date: 19 September 2020
Orbit: 832 x 844 km, 71.0° (Epoch: 26 October)

Event Time Altitude Azimuth Distance (km) Brightness Sun altitude
Exits shadow 00:51:01 27° 115° (ESE) 1,559 4.1 -31.0°
Maximum altitude 00:51:38 27° 104° (ESE) 1,539 4.2 -31.0°
Drops below altitude 10° 00:56:17 10° 48° (NE) 2,451 6.0 -30.5°
Sets 00:59:03 0° 37° (NE) 3,391 7.0 -30.2°
